{"data":{"norad_id":63775,"intl_designator":"2025-091A","name":"STARLINK-33932","alt_names":[],"object_type":"PAYLOAD","status":"ACTIVE","operator":null,"country":"US","launch_date":"2025-05-02","launch_site_code":"AFETR","launch_vehicle":null,"mission":null,"orbit_class":"UNKNOWN","rcs_meters":null,"size_class":null,"mass_kg":null,"dimensions":null,"purposes":["comms"],"wikipedia_slug":null,"has_3d_model":false,"image_url":null,"decayed_at":null,"tle_current":{"epoch":"2026-05-24T20:42:29.509920Z","epoch_age_seconds":77170,"freshness":"FRESH","line1":"1 63775U 25091A   26144.86284155  .00015617  00000+0  57536-3 0  9999","line2":"2 63775  43.0053 342.1931 0001247 282.2711  77.8001 15.27606161 60593","mean_motion":15.27606161,"eccentricity":0.0001247,"inclination_deg":43.0053,"raan_deg":342.1931,"arg_perigee_deg":282.2711,"mean_anomaly_deg":77.8001,"bstar":0.00057536,"rev_number":6059,"period_min":94.265134349638,"perigee_km":482.11518157434,"apogee_km":483.82634185011,"semimajor_km":6861.1077617122,"source":"CELESTRAK","updated_at":"2026-05-25T13:38:20.131114Z"}}}